Zurück zum Katalog

STARLINK-34906

AktivKommunikationVLEO
NORAD 65896·PAYLOAD·🇺🇸 United States

Gestartet Oct 7, 2025 von Cape Canaveral Space Force Station

Loading…

Nächste Überflüge (nächste 24 Stunden)

TLE

AktuellSource: CelesTrak SupGP

Epoche: Sep 15, 2026, 02:33 UTC

1 65896C 25224Q   26258.10673611 -.00068058  00000+0 -21886-2 0  2580
2 65896  53.1572 210.0640 0001328  88.4179 337.2567 15.31734743    15

Verfolge STARLINK-34906 in Echtzeit mit AllMySat

Download on the App Store